Flag for U.S.A. Weather past 2 weeks in Furnace Creek (Death Valley), California, U.S.A.

Now
83 °F

Sunny.


Feels Like: 80 °F
Forecast: 61 / 98 °F
Wind: 7 mph from North

Location: Desert Rock Airport

Current Time: Apr 19, 2015 at 2:31:24 PM

Latest Report: Apr 19, 2015 at 1:52 PM


Visibility: 10 mi

Pressure: 29.79 "Hg

Humidity: 7%

Dew point: 14 °F

Location of Furnace Creek (Death Valley)Location

Historic Weather in Furnace Creek (Death Valley) — Graph

°F

Furnace Creek (Death Valley) temperature yesterday

Maximum temperature yesterday: 82 °F (at 2:52 PM)
Minimum temperature yesterday: 47 °F (at 5:52 AM)
Average temperature yesterday: 67 °F

Past Weeks' High & Low Weather Summary

 TemperatureHumidityPressure
High84 °F (Apr 13, 1:52 PM)51% (Apr 8, 5:52 AM)30.15 "Hg (Apr 8, 5:52 AM)
Low39 °F (Apr 10, 5:52 AM)5% (Apr 4, 2:52 PM)29.49 "Hg (Apr 5, 5:52 PM)
Average61 °F17%29.85 "Hg
* Reported Apr 4 12:52 PM — Apr 19 12:52 PM, Furnace Creek (Death Valley), Weather by CustomWeather, © 2015

Note: Actual official high and low records may vary slightly from our data, if they occured in-between our weather recording intervals... More about our weather records

Advertising

Furnace Creek (Death Valley) weather history for previous 24 hours

 ConditionsComfort  
Time TempWeatherWind HumidityBarometerVisibility
12:52 PM
Sun, Apr 19
82 °FSunny.3 mph8%29.81 "Hg10 mi
11:52 AM77 °FSunny.3 mph10%29.85 "Hg10 mi
10:52 AM78 °FSunny.7 mph10%29.87 "Hg10 mi
9:52 AM74 °FSunny.3 mph12%29.87 "Hg10 mi
8:52 AM70 °FSunny.15 mph14%29.88 "Hg10 mi
7:52 AM67 °FSunny.17 mph15%29.88 "Hg10 mi
5:52 AM62 °FClear.14 mph16%29.84 "Hg10 mi
4:52 AM59 °FClear.3 mph18%29.83 "Hg10 mi
3:52 AM55 °FClear.7 mph21%29.83 "Hg10 mi
2:52 AM57 °FClear.6 mph18%29.83 "Hg10 mi
1:52 AM53 °FClear.3 mph19%29.83 "Hg10 mi
12:52 AM57 °FClear.5 mph16%29.82 "Hg10 mi
11:52 PM
Sat, Apr 18
58 °FClear.7 mph15%29.81 "Hg10 mi
10:52 PM58 °FClear.No wind15%29.81 "Hg10 mi
9:52 PM65 °FClear.10 mph12%29.81 "Hg10 mi
8:52 PM65 °FClear.3 mph11%29.80 "Hg10 mi
7:52 PM72 °FSunny.5 mph9%29.78 "Hg10 mi
6:52 PM76 °FSunny.6 mph8%29.79 "Hg10 mi
5:52 PM80 °FSunny.10 mph7%29.79 "Hg10 mi
4:52 PM82 °FSunny.10 mph6%29.79 "Hg10 mi
3:52 PM82 °FSunny.15 mph7%29.80 "Hg10 mi
2:52 PM82 °FSunny.12 mph7%29.82 "Hg10 mi
Weather by CustomWeather, © 2015

See weather overviewHow to use our weather pages